Weather History for Port Angeles, WA

Change the Weather History Date:

Thursday, September 12, 2013

  Actual Average Record
Temperature  
Mean Temperature 62 °F -  
Max Temperature 69 °F 67 °F 77 °F (1975)
Min Temperature 55 °F 48 °F 40 °F (1949)
Degree Days  
Heating Degree Days 4    
Growing Degree Days 12 (Base 50)    
Moisture  
Dew Point 56 °F    
Average Humidity 92    
Maximum Humidity 100    
Minimum Humidity 70    
Precipitation  
Precipitation 0.00 in - - ()
Sea Level Pressure  
Sea Level Pressure 29.97 in    
Wind  
Wind Speed 7 mph (WNW)    
Max Wind Speed 13 mph    
Max Gust Speed 18 mph    
Visibility 5 miles    
Events Fog    
Averages and records for this station are not official NWS values.
T = Trace of Precipitation, MM = Missing Value Source: NWS Daily Summary

Daily Weather History Graph

Daily Weather History Graph

Search for Another Location

Airport:

Trip Planner

Search our weather history database for the weather conditions in past years. The results will help you decide how hot, cold, wet, or windy it might be!

Date:

Astronomy

Sep. 12, 2013 Rise Set
Actual Time 6:47 AM PDT 7:31 PM PDT
Civil Twilight 6:15 AM PDT 8:03 PM PDT
Nautical Twilight 5:38 AM PDT 8:40 PM PDT
Astronomical Twilight 4:58 AM PDT 9:19 PM PDT
Moon 2:50 PM PDT (9/12) No Moon Set
Length of Visible Light 13h 47m
Length of Day
12h 44m
Waxing Crescent, 51% of the Moon is Illuminated
Sep 12
Waxing Crescent
Sep 19
Full
Sep 26
Last Quarter
Oct 4
New
Oct 11
First Quarter

Hourly Weather History & Observations

Time (PDT) Temp. Dew Point Humidity Pressure Visibility Wind Dir Wind Speed Gust Speed Precip Events Conditions
12:53 AM 57.9 °F 54.0 °F 87% 29.96 in 10.0 mi WSW 3.5 mph - N/A   Clear
1:53 AM 55.0 °F 53.1 °F 93% 29.96 in 10.0 mi West 5.8 mph - N/A   Clear
2:53 AM 55.0 °F 53.1 °F 93% 29.97 in 10.0 mi WNW 5.8 mph - N/A   Clear
3:12 AM 55.0 °F 54.0 °F 96% 29.97 in 5.0 mi NW 6.9 mph - N/A   Scattered Clouds
3:18 AM 55.0 °F 54.0 °F 96% 29.97 in 2.5 mi WNW 6.9 mph - N/A   Mostly Cloudy
3:42 AM 55.0 °F 54.0 °F 96% 29.97 in 6.0 mi WNW 6.9 mph - N/A   Mostly Cloudy
3:53 AM 55.9 °F 54.0 °F 93% 29.97 in 10.0 mi WNW 8.1 mph - N/A   Scattered Clouds
4:22 AM 55.9 °F 55.0 °F 97% 29.97 in 5.0 mi WNW 5.8 mph - N/A   Mostly Cloudy
4:29 AM 55.0 °F 54.0 °F 96% 29.97 in 10.0 mi WNW 5.8 mph - N/A   Scattered Clouds
4:42 AM 55.9 °F 55.0 °F 97% 29.98 in 2.5 mi NW 6.9 mph - N/A   Mostly Cloudy
4:48 AM 55.4 °F 55.4 °F 100% 29.98 in 0.8 mi WNW 5.8 mph - N/A   Mist
4:53 AM 55.9 °F 55.0 °F 97% 29.98 in 1.0 mi WNW 5.8 mph - N/A   Mist
4:58 AM 55.0 °F 54.0 °F 96% 29.98 in 4.0 mi WNW 5.8 mph - N/A   Mostly Cloudy
5:33 AM 55.9 °F 55.0 °F 97% 29.98 in 1.8 mi West 5.8 mph - N/A   Overcast
5:43 AM 55.9 °F 55.0 °F 97% 29.98 in 0.5 mi West 5.8 mph - N/A Fog Fog
5:53 AM 55.9 °F 55.0 °F 97% 29.98 in 0.8 mi WSW 3.5 mph - N/A   Mist
5:58 AM 55.0 °F 55.0 °F 100% 29.98 in 2.0 mi West 3.5 mph - N/A   Overcast
6:14 AM 55.9 °F 55.0 °F 97% 29.99 in 1.0 mi West 5.8 mph - N/A   Overcast
6:23 AM 55.9 °F 55.0 °F 97% 29.99 in 0.8 mi WSW 5.8 mph - N/A   Mist
6:53 AM 57.0 °F 55.9 °F 96% 29.99 in 0.8 mi West 6.9 mph - N/A   Mist
7:30 AM 57.0 °F 55.9 °F 96% 30.00 in 0.5 mi WNW 4.6 mph - N/A Fog Fog
7:41 AM 57.0 °F 55.9 °F 96% 30.00 in 1.8 mi West 5.8 mph - N/A   Overcast
7:53 AM 57.9 °F 57.0 °F 97% 30.00 in 0.2 mi WNW 6.9 mph - N/A Fog Fog
8:12 AM 57.9 °F 57.0 °F 97% 30.01 in 0.5 mi West 5.8 mph - N/A Fog Fog
8:21 AM 57.9 °F 57.0 °F 97% 30.00 in 0.2 mi West 6.9 mph - N/A Fog Fog
8:34 AM 59.0 °F 57.9 °F 96% 30.00 in 1.0 mi West 6.9 mph - N/A   Mist
8:37 AM 59.0 °F 57.9 °F 96% 30.00 in 4.0 mi West 6.9 mph - N/A   Overcast
8:53 AM 59.0 °F 57.9 °F 96% 30.00 in 8.0 mi WNW 8.1 mph - N/A   Mostly Cloudy
9:00 AM 59.0 °F 57.9 °F 96% 30.00 in 1.2 mi NW 8.1 mph - N/A   Mostly Cloudy
9:07 AM 59.0 °F 57.9 °F 96% 30.00 in 0.5 mi NW 6.9 mph - N/A Fog Fog
9:18 AM 59.0 °F 57.9 °F 96% 30.00 in 1.5 mi WNW 5.8 mph - N/A   Overcast
9:28 AM 59.0 °F 57.9 °F 96% 30.00 in 3.0 mi WNW 8.1 mph - N/A   Overcast
9:53 AM 60.1 °F 59.0 °F 96% 30.00 in 10.0 mi Variable 4.6 mph - N/A   Mostly Cloudy
10:07 AM 62.1 °F 57.9 °F 86% 30.00 in 10.0 mi WNW 8.1 mph - N/A   Scattered Clouds
10:53 AM 64.0 °F 57.9 °F 80% 30.00 in 10.0 mi NW 5.8 mph - N/A   Clear
11:53 AM 64.0 °F 57.0 °F 78% 29.99 in 10.0 mi NW 8.1 mph - N/A   Clear
12:53 PM 64.9 °F 57.9 °F 78% 29.99 in 10.0 mi WNW 11.5 mph - N/A   Clear
1:53 PM 64.9 °F 57.0 °F 75% 29.98 in 10.0 mi NW 10.4 mph - N/A   Clear
2:53 PM 68.0 °F 57.9 °F 70% 29.96 in 10.0 mi NW 10.4 mph - N/A   Clear
3:53 PM 66.9 °F 57.9 °F 73% 29.95 in 10.0 mi NW 8.1 mph - N/A   Clear
4:53 PM 66.0 °F 57.9 °F 75% 29.94 in 10.0 mi NW 9.2 mph - N/A   Clear
5:53 PM 66.0 °F 57.9 °F 75% 29.93 in 10.0 mi WNW 9.2 mph - N/A   Clear
6:53 PM 63.0 °F 57.9 °F 84% 29.92 in 10.0 mi NW 10.4 mph - N/A   Clear
7:50 PM 60.8 °F 57.2 °F 88% 29.92 in 10.0 mi WNW 8.1 mph - N/A   Partly Cloudy
7:53 PM 60.1 °F 57.0 °F 90% 29.93 in 10.0 mi WNW 8.1 mph - N/A   Partly Cloudy
8:14 PM 60.1 °F 57.9 °F 93% 29.93 in 10.0 mi WNW 10.4 mph - N/A   Mostly Cloudy
8:53 PM 60.1 °F 57.9 °F 93% 29.94 in 10.0 mi WNW 10.4 mph - N/A   Overcast
9:53 PM 59.0 °F 57.9 °F 96% 29.94 in 4.0 mi WNW 8.1 mph - N/A   Overcast
10:53 PM 59.0 °F 57.9 °F 96% 29.94 in 5.0 mi WNW 10.4 mph - N/A   Overcast
11:15 PM 59.0 °F 57.9 °F 96% 29.94 in 1.8 mi WNW 12.7 mph - N/A   Overcast
11:34 PM 59.0 °F 57.9 °F 96% 29.95 in 1.8 mi WNW 11.5 mph 18.4 mph N/A   Overcast
11:41 PM 59.0 °F 57.9 °F 96% 29.94 in 2.5 mi WNW 11.5 mph - N/A   Overcast
11:49 PM 59.0 °F 57.2 °F 94% 29.95 in 3.0 mi WNW 12.7 mph - N/A   Overcast
11:53 PM 59.0 °F 57.9 °F 96% 29.95 in 3.0 mi WNW 9.2 mph - N/A   Overcast